Find Raduga-1

NORAD ID: 28194 Int'l Des: 2004-010 Owner: KVR Country: RU operational
HEOCIRCULAR

Live Position

Loading 3D Globe...

About Raduga-1

Description loading...

Upcoming Passes

Passes for default location (London). Set your location on the main map for personalized predictions.

Altitude History

Loading altitude history...

Two-Line Element Set

1 28194U 04010A 26105.87886656 .00000125 00000-0 00000-0 0 9995
2 28194 13.6066 21.2600 0004618 247.8018 296.0572 1.00187445 80793
Epoch: Apr 15, 2026 • Age: 27 hours

Current Status

Altitude 35793.6 km
Velocity 3.08 km/s
Sub-Earth Point -9.55°S, 43.52°E
Launch Date Mar 27, 2004
Age 22 years
Type other

Technical Details

Classification Payload
Mass 2500.00 kg
Dry Mass 2200.00 kg
Total Mass 2500.00 kg
Length 5.00 m
Diameter 2.00 m
Span 20.00 m
Shape Step Cyl + 2 Pan
Manufacturer NPOPMR
Bus Type Globus
Phase Status In Orbit
Owner/State KVR/RU

Most Searched